| time (UTC) | temp C | wind direction | speed KPH | gust KPH | rain 1hr cm | rain 24hr cm | rain mn cm | humidity % | barometer mb |
| 20260507143558 | 20 | 350 | 0.0 | 0.0 | 0.00 | 0.00 | 0.00 | 28 | 1010.4 |
| 20260507143055 | 20 | 30 | 0.0 | 0.0 | 0.00 | 0.00 | 0.00 | 28 | 1010.6 |
| 20260507142555 | 20 | 36 | 0.0 | 0.0 | 0.00 | 0.00 | 0.00 | 28 | 1010.5 |
| 20260507142053 | 18 | 38 | 0.0 | 0.0 | 0.00 | 0.00 | 0.00 | 30 | 1010.5 |
| 20260507141548 | 18 | 23 | 0.0 | 0.0 | 0.00 | 0.00 | 0.00 | 31 | 1010.8 |
| 20260507141045 | 18 | 35 | 0.0 | 0.0 | 0.00 | 0.00 | 0.00 | 30 | 1010.6 |
| 20260507140542 | 18 | 312 | 0.0 | 1.6 | 0.00 | 0.00 | 0.00 | 32 | 1010.6 |
| 20260507140040 | 18 | 32 | 0.0 | 0.0 | 0.00 | 0.00 | 0.00 | 32 | 1010.5 |
| 20260507135536 | 18 | 34 | 0.0 | 0.0 | 0.00 | 0.00 | 0.00 | 32 | 1010.4 |
| 20260507135034 | 18 | 49 | 0.0 | 0.0 | 0.00 | 0.00 | 0.00 | 32 | 1010.3 |
| 20260507134530 | 19 | 23 | 0.0 | 1.6 | 0.00 | 0.00 | 0.00 | 33 | 1010.5 |
| 20260507134026 | 20 | 17 | 0.0 | 0.0 | 0.00 | 0.00 | 0.00 | 28 | 1010.4 |
| 20260507133522 | 20 | 345 | 0.0 | 0.0 | 0.00 | 0.00 | 0.00 | 27 | 1009.9 |
| 20260507133021 | 21 | 249 | 1.6 | 1.6 | 0.00 | 0.00 | 0.00 | 26 | 1010.2 |
| 20260507132517 | 21 | 92 | 0.0 | 1.6 | 0.00 | 0.00 | 0.00 | 25 | 1010.2 |
| 20260507131459 | 18 | 35 | 0.0 | 0.0 | 0.00 | 0.00 | 0.00 | 29 | 1010.0 |
| 20260507130956 | 18 | 35 | 0.0 | 0.0 | 0.00 | 0.00 | 0.00 | 29 | 1010.0 |
| 20260507130453 | 18 | 41 | 0.0 | 0.0 | 0.00 | 0.00 | 0.00 | 29 | 1009.9 |
| 20260507125952 | 19 | 39 | 0.0 | 0.0 | 0.00 | 0.00 | 0.00 | 29 | 1009.7 |
| 20260507125450 | 20 | 15 | 0.0 | 3.2 | 0.00 | 0.00 | 0.00 | 29 | 1010.0 |
| 20260507124946 | 20 | 7 | 0.0 | 3.2 | 0.00 | 0.00 | 0.00 | 27 | 1010.0 |
| 20260507124443 | 20 | 62 | 0.0 | 1.6 | 0.00 | 0.00 | 0.00 | 27 | 1009.9 |
| 20260507123941 | 20 | 134 | 1.6 | 8.0 | 0.00 | 0.00 | 0.00 | 28 | 1010.3 |
| 20260507123438 | 20 | 116 | 6.4 | 9.7 | 0.00 | 0.00 | 0.00 | 28 | 1010.0 |
| 20260507122935 | 20 | 109 | 4.8 | 11.3 | 0.00 | 0.00 | 0.00 | 28 | 1009.9 |
| 20260507122430 | 20 | 141 | 8.0 | 11.3 | 0.00 | 0.00 | 0.00 | 28 | 1010.2 |
| 20260507121926 | 19 | 142 | 4.8 | 11.3 | 0.00 | 0.00 | 0.00 | 27 | 1010.0 |
| 20260507121421 | 19 | 16 | 0.0 | 0.0 | 0.00 | 0.00 | 0.00 | 27 | 1009.8 |
| 20260507115638 | 20 | 35 | 0.0 | 0.0 | 0.00 | 0.00 | 0.00 | 28 | 1009.7 |
| 20260507115134 | 20 | 35 | 0.0 | 0.0 | 0.00 | 0.00 | 0.00 | 28 | 1009.7 |
| 20260507114630 | 20 | 4 | 0.0 | 1.6 | 0.00 | 0.00 | 0.00 | 26 | 1009.7 |
| 20260507114127 | 20 | 31 | 0.0 | 0.0 | 0.00 | 0.00 | 0.00 | 26 | 1009.8 |
| 20260507113625 | 20 | 333 | 0.0 | 1.6 | 0.00 | 0.00 | 0.00 | 25 | 1009.9 |
| 20260507113121 | 21 | 319 | 0.0 | 1.6 | 0.00 | 0.00 | 0.00 | 25 | 1009.9 |
| 20260507112620 | 21 | 180 | 1.6 | 3.2 | 0.00 | 0.00 | 0.00 | 24 | 1009.9 |
| 20260507112116 | 21 | 158 | 3.2 | 3.2 | 0.00 | 0.00 | 0.00 | 24 | 1009.8 |
| 20260507111613 | 21 | 207 | 1.6 | 1.6 | 0.00 | 0.00 | 0.00 | 24 | 1009.9 |
| 20260507111109 | 21 | 192 | 1.6 | 8.0 | 0.00 | 0.00 | 0.00 | 24 | 1009.9 |
| 20260507110606 | 21 | 62 | 0.0 | 3.2 | 0.00 | 0.00 | 0.00 | 24 | 1009.9 |
| 20260507110057 | 22 | 124 | 1.6 | 1.6 | 0.00 | 0.00 | 0.00 | 24 | 1010.2 |
| 20260507105554 | 22 | 356 | 1.6 | 9.7 | 0.00 | 0.00 | 0.00 | 23 | 1009.8 |
| 20260507105050 | 22 | 46 | 4.8 | 4.8 | 0.00 | 0.00 | 0.00 | 23 | 1009.8 |
| 20260507104548 | 22 | 10 | 6.4 | 9.7 | 0.00 | 0.00 | 0.00 | 22 | 1010.0 |
| 20260507104044 | 22 | 291 | 1.6 | 8.0 | 0.00 | 0.00 | 0.00 | 23 | 1010.0 |
| 20260507103540 | 22 | 7 | 0.0 | 1.6 | 0.00 | 0.00 | 0.00 | 23 | 1009.8 |
| 20260507103037 | 22 | 18 | 0.0 | 4.8 | 0.00 | 0.00 | 0.00 | 22 | 1009.9 |
| 20260507102533 | 22 | 352 | 4.8 | 9.7 | 0.00 | 0.00 | 0.00 | 22 | 1010.3 |
| 20260507102031 | 22 | 25 | 0.0 | 1.6 | 0.00 | 0.00 | 0.00 | 22 | 1010.2 |
| 20260507101525 | 22 | 39 | 6.4 | 9.7 | 0.00 | 0.00 | 0.00 | 22 | 1010.4 |
| 20260507101022 | 22 | 61 | 1.6 | 3.2 | 0.00 | 0.00 | 0.00 | 23 | 1010.3 |
| 20260507100520 | 22 | 345 | 0.0 | 1.6 | 0.00 | 0.00 | 0.00 | 22 | 1010.5 |
| 20260507100017 | 22 | 46 | 1.6 | 8.0 | 0.00 | 0.00 | 0.00 | 22 | 1010.3 |
| 20260507095514 | 23 | 29 | 3.2 | 8.0 | 0.00 | 0.00 | 0.00 | 22 | 1010.3 |
| 20260507095011 | 23 | 110 | 6.4 | 9.7 | 0.00 | 0.00 | 0.00 | 22 | 1010.4 |
| 20260507094508 | 23 | 31 | 4.8 | 9.7 | 0.00 | 0.00 | 0.00 | 22 | 1010.6 |
| 20260507094005 | 23 | 42 | 6.4 | 8.0 | 0.00 | 0.00 | 0.00 | 21 | 1010.3 |
| 20260507093502 | 23 | 48 | 1.6 | 8.0 | 0.00 | 0.00 | 0.00 | 22 | 1010.5 |
| 20260507093001 | 23 | 13 | 3.2 | 4.8 | 0.00 | 0.00 | 0.00 | 21 | 1010.4 |
| 20260507092456 | 23 | 348 | 4.8 | 9.7 | 0.00 | 0.00 | 0.00 | 21 | 1010.5 |
| 20260507091953 | 23 | 32 | 8.0 | 11.3 | 0.00 | 0.00 | 0.00 | 21 | 1010.5 |
| 20260507091449 | 23 | 90 | 3.2 | 8.0 | 0.00 | 0.00 | 0.00 | 21 | 1010.4 |
| 20260507090945 | 23 | 16 | 3.2 | 8.0 | 0.00 | 0.00 | 0.00 | 21 | 1010.3 |
| 20260507090436 | 23 | 34 | 4.8 | 4.8 | 0.00 | 0.00 | 0.00 | 21 | 1010.5 |
| 20260507085933 | 23 | 46 | 8.0 | 12.9 | 0.00 | 0.00 | 0.00 | 20 | 1010.5 |
| 20260507085430 | 23 | 42 | 6.4 | 11.3 | 0.00 | 0.00 | 0.00 | 21 | 1010.5 |
| 20260507084927 | 23 | 42 | 6.4 | 9.7 | 0.00 | 0.00 | 0.00 | 21 | 1010.6 |
| 20260507084424 | 23 | 20 | 6.4 | 8.0 | 0.00 | 0.00 | 0.00 | 21 | 1010.4 |
| 20260507083921 | 23 | 24 | 4.8 | 11.3 | 0.00 | 0.00 | 0.00 | 21 | 1010.4 |
| 20260507083417 | 23 | 46 | 9.7 | 11.3 | 0.00 | 0.00 | 0.00 | 21 | 1010.4 |
| 20260507082914 | 23 | 39 | 4.8 | 9.7 | 0.00 | 0.00 | 0.00 | 21 | 1010.7 |
| 20260507082410 | 23 | 25 | 8.0 | 12.9 | 0.00 | 0.00 | 0.00 | 21 | 1010.4 |
| 20260507081907 | 23 | 24 | 3.2 | 3.2 | 0.00 | 0.00 | 0.00 | 22 | 1010.7 |
| 20260507081403 | 23 | 63 | 4.8 | 4.8 | 0.00 | 0.00 | 0.00 | 22 | 1010.8 |
| 20260507080859 | 23 | 17 | 3.2 | 4.8 | 0.00 | 0.00 | 0.00 | 22 | 1010.7 |
| 20260507080356 | 23 | 40 | 4.8 | 4.8 | 0.00 | 0.00 | 0.00 | 23 | 1010.8 |
| 20260507075851 | 23 | 32 | 6.4 | 11.3 | 0.00 | 0.00 | 0.00 | 22 | 1011.1 |
| 20260507075348 | 23 | 62 | 3.2 | 4.8 | 0.00 | 0.00 | 0.00 | 22 | 1010.8 |
| 20260507074844 | 22 | 54 | 1.6 | 3.2 | 0.00 | 0.00 | 0.00 | 23 | 1010.8 |
| 20260507074342 | 21 | 22 | 0.0 | 0.0 | 0.00 | 0.00 | 0.00 | 26 | 1011.0 |
| 20260507073839 | 22 | 47 | 0.0 | 1.6 | 0.00 | 0.00 | 0.00 | 24 | 1010.7 |
| 20260507073335 | 22 | 38 | 0.0 | 0.0 | 0.00 | 0.00 | 0.00 | 23 | 1010.9 |
| 20260507072832 | 22 | 65 | 1.6 | 1.6 | 0.00 | 0.00 | 0.00 | 23 | 1011.0 |
| 20260507072330 | 23 | 24 | 0.0 | 0.0 | 0.00 | 0.00 | 0.00 | 23 | 1010.9 |
| 20260507071827 | 22 | 75 | 1.6 | 1.6 | 0.00 | 0.00 | 0.00 | 22 | 1010.7 |
| 20260507071324 | 23 | 34 | 0.0 | 1.6 | 0.00 | 0.00 | 0.00 | 22 | 1010.9 |
| 20260507070820 | 23 | 12 | 0.0 | 1.6 | 0.00 | 0.00 | 0.00 | 22 | 1010.9 |
| 20260507070318 | 23 | 9 | 0.0 | 3.2 | 0.00 | 0.00 | 0.00 | 22 | 1010.9 |
| 20260507065814 | 24 | 19 | 1.6 | 4.8 | 0.00 | 0.00 | 0.00 | 21 | 1010.7 |
| 20260507065311 | 24 | 17 | 4.8 | 11.3 | 0.00 | 0.00 | 0.00 | 22 | 1010.9 |
| 20260507064808 | 24 | 353 | 1.6 | 4.8 | 0.00 | 0.00 | 0.00 | 22 | 1011.0 |
| 20260507064307 | 24 | 14 | 4.8 | 4.8 | 0.00 | 0.00 | 0.00 | 21 | 1010.8 |
| 20260507063805 | 24 | 10 | 4.8 | 4.8 | 0.00 | 0.00 | 0.00 | 21 | 1010.8 |
| 20260507063301 | 24 | 8 | 3.2 | 9.7 | 0.00 | 0.00 | 0.00 | 21 | 1011.0 |
| 20260507062758 | 23 | 3 | 6.4 | 8.0 | 0.00 | 0.00 | 0.00 | 22 | 1011.0 |
| 20260507062255 | 23 | 23 | 1.6 | 1.6 | 0.00 | 0.00 | 0.00 | 22 | 1011.0 |
| 20260507061753 | 23 | 19 | 0.0 | 1.6 | 0.00 | 0.00 | 0.00 | 23 | 1010.7 |
| 20260507061250 | 23 | 35 | 0.0 | 1.6 | 0.00 | 0.00 | 0.00 | 24 | 1010.8 |
| 20260507060748 | 23 | 17 | 0.0 | 1.6 | 0.00 | 0.00 | 0.00 | 22 | 1011.0 |
| 20260507060245 | 23 | 40 | 0.0 | 1.6 | 0.00 | 0.00 | 0.00 | 21 | 1010.8 |
| 20260507055741 | 23 | 35 | 0.0 | 0.0 | 0.00 | 0.00 | 0.00 | 22 | 1011.0 |
| 20260507055237 | 23 | 23 | 0.0 | 1.6 | 0.00 | 0.00 | 0.00 | 22 | 1010.9 |
| 20260507054733 | 23 | 39 | 0.0 | 1.6 | 0.00 | 0.00 | 0.00 | 23 | 1010.9 |
| 20260507054230 | 23 | 28 | 0.0 | 0.0 | 0.00 | 0.00 | 0.00 | 22 | 1010.9 |
| 20260507053728 | 23 | 28 | 0.0 | 1.6 | 0.00 | 0.00 | 0.00 | 21 | 1011.0 |
| 20260507053225 | 23 | 32 | 0.0 | 1.6 | 0.00 | 0.00 | 0.00 | 21 | 1010.9 |
| 20260507052724 | 24 | 38 | 0.0 | 1.6 | 0.00 | 0.00 | 0.00 | 21 | 1011.0 |
| 20260507052220 | 24 | 46 | 1.6 | 1.6 | 0.00 | 0.00 | 0.00 | 21 | 1011.0 |
| 20260507051718 | 24 | 29 | 3.2 | 3.2 | 0.00 | 0.00 | 0.00 | 22 | 1010.9 |
| 20260507051215 | 23 | 57 | 0.0 | 1.6 | 0.00 | 0.00 | 0.00 | 21 | 1010.9 |
| 20260507050711 | 24 | 24 | 0.0 | 1.6 | 0.00 | 0.00 | 0.00 | 21 | 1010.9 |
| 20260507050208 | 23 | 30 | 0.0 | 1.6 | 0.00 | 0.00 | 0.00 | 22 | 1010.8 |
| 20260507045705 | 24 | 13 | 1.6 | 1.6 | 0.00 | 0.00 | 0.00 | 22 | 1010.6 |
| 20260507045201 | 23 | 34 | 1.6 | 1.6 | 0.00 | 0.00 | 0.00 | 22 | 1010.8 |
| 20260507044658 | 23 | 30 | 0.0 | 1.6 | 0.00 | 0.00 | 0.00 | 24 | 1010.6 |
| 20260507044155 | 23 | 31 | 0.0 | 0.0 | 0.00 | 0.00 | 0.00 | 23 | 1010.8 |
| 20260507043651 | 23 | 20 | 0.0 | 0.0 | 0.00 | 0.00 | 0.00 | 23 | 1010.8 |
| 20260507043148 | 23 | 18 | 0.0 | 0.0 | 0.00 | 0.00 | 0.00 | 23 | 1010.7 |
| 20260507042644 | 23 | 39 | 0.0 | 0.0 | 0.00 | 0.00 | 0.00 | 23 | 1010.6 |
| 20260507042139 | 23 | 20 | 0.0 | 0.0 | 0.00 | 0.00 | 0.00 | 23 | 1010.6 |
| 20260507041637 | 23 | 27 | 0.0 | 0.0 | 0.00 | 0.00 | 0.00 | 24 | 1010.6 |
| 20260507041133 | 23 | 38 | 0.0 | 1.6 | 0.00 | 0.00 | 0.00 | 23 | 1010.5 |
| 20260507040630 | 23 | 22 | 0.0 | 0.0 | 0.00 | 0.00 | 0.00 | 24 | 1010.5 |
| 20260507040126 | 23 | 34 | 0.0 | 0.0 | 0.00 | 0.00 | 0.00 | 23 | 1010.4 |
| 20260507035622 | 23 | 29 | 0.0 | 0.0 | 0.00 | 0.00 | 0.00 | 24 | 1010.3 |
| 20260507035118 | 23 | 23 | 0.0 | 0.0 | 0.00 | 0.00 | 0.00 | 23 | 1010.3 |
| 20260507034615 | 23 | 23 | 0.0 | 0.0 | 0.00 | 0.00 | 0.00 | 23 | 1010.4 |
| 20260507034113 | 23 | 42 | 0.0 | 0.0 | 0.00 | 0.00 | 0.00 | 22 | 1010.2 |
| 20260507033611 | 24 | 32 | 0.0 | 0.0 | 0.00 | 0.00 | 0.00 | 22 | 1010.0 |
| 20260507033108 | 24 | 22 | 0.0 | 0.0 | 0.00 | 0.00 | 0.00 | 22 | 1010.2 |
| 20260507032606 | 25 | 48 | 0.0 | 0.0 | 0.00 | 0.00 | 0.00 | 21 | 1010.2 |
| 20260507032101 | 25 | 43 | 0.0 | 0.0 | 0.00 | 0.00 | 0.00 | 23 | 1009.9 |
| 20260507031558 | 25 | 37 | 0.0 | 0.0 | 0.00 | 0.00 | 0.00 | 22 | 1010.0 |
| 20260507031055 | 25 | 35 | 0.0 | 0.0 | 0.00 | 0.00 | 0.00 | 22 | 1009.8 |
| 20260507030551 | 25 | 28 | 0.0 | 0.0 | 0.00 | 0.00 | 0.00 | 22 | 1009.5 |
| 20260507030049 | 25 | 27 | 0.0 | 0.0 | 0.00 | 0.00 | 0.00 | 22 | 1009.6 |
| 20260507025546 | 25 | 24 | 0.0 | 1.6 | 0.00 | 0.00 | 0.00 | 23 | 1009.6 |
| 20260507025043 | 26 | 9 | 0.0 | 3.2 | 0.00 | 0.00 | 0.00 | 21 | 1009.5 |
| 20260507024541 | 26 | 323 | 1.6 | 3.2 | 0.00 | 0.00 | 0.00 | 21 | 1009.6 |
| 20260507024038 | 26 | 12 | 1.6 | 8.0 | 0.00 | 0.00 | 0.00 | 21 | 1009.5 |
| 20260507023533 | 26 | 29 | 1.6 | 3.2 | 0.00 | 0.00 | 0.00 | 21 | 1009.4 |
| 20260507023032 | 26 | 60 | 4.8 | 4.8 | 0.00 | 0.00 | 0.00 | 21 | 1009.4 |
| 20260507022528 | 26 | 62 | 3.2 | 3.2 | 0.00 | 0.00 | 0.00 | 20 | 1009.1 |
| 20260507022023 | 26 | 25 | 1.6 | 1.6 | 0.00 | 0.00 | 0.00 | 21 | 1009.2 |
| 20260507021519 | 26 | 25 | 1.6 | 3.2 | 0.00 | 0.00 | 0.00 | 20 | 1009.4 |
| 20260507021016 | 26 | 9 | 1.6 | 3.2 | 0.00 | 0.00 | 0.00 | 20 | 1009.2 |
| 20260507020514 | 26 | 39 | 1.6 | 1.6 | 0.00 | 0.00 | 0.00 | 21 | 1009.1 |
| 20260507020010 | 26 | 39 | 0.0 | 1.6 | 0.00 | 0.00 | 0.00 | 20 | 1009.2 |
| 20260507015509 | 26 | 20 | 1.6 | 1.6 | 0.00 | 0.00 | 0.00 | 20 | 1009.1 |
| 20260507015006 | 26 | 16 | 0.0 | 3.2 | 0.00 | 0.00 | 0.00 | 20 | 1009.2 |
| 20260507014502 | 26 | 318 | 4.8 | 4.8 | 0.00 | 0.00 | 0.00 | 20 | 1009.2 |
| 20260507013958 | 27 | 48 | 3.2 | 4.8 | 0.00 | 0.00 | 0.00 | 20 | 1009.0 |
| 20260507013455 | 27 | 17 | 4.8 | 8.0 | 0.00 | 0.00 | 0.00 | 19 | 1009.0 |
| 20260507012952 | 27 | 43 | 6.4 | 9.7 | 0.00 | 0.00 | 0.00 | 19 | 1009.4 |
| 20260507012449 | 28 | 25 | 4.8 | 4.8 | 0.00 | 0.00 | 0.00 | 18 | 1008.9 |
| 20260507011945 | 28 | 354 | 3.2 | 9.7 | 0.00 | 0.00 | 0.00 | 18 | 1009.1 |
| 20260507011442 | 27 | 32 | 3.2 | 4.8 | 0.00 | 0.00 | 0.00 | 19 | 1009.0 |
| 20260507010938 | 28 | 20 | 4.8 | 4.8 | 0.00 | 0.00 | 0.00 | 18 | 1009.2 |
| 20260507010433 | 27 | 29 | 4.8 | 8.0 | 0.00 | 0.00 | 0.00 | 18 | 1008.9 |
| 20260507005930 | 28 | 38 | 4.8 | 4.8 | 0.00 | 0.00 | 0.00 | 18 | 1009.0 |
| 20260507005427 | 28 | 9 | 4.8 | 8.0 | 0.00 | 0.00 | 0.00 | 18 | 1009.0 |
| 20260507004924 | 28 | 9 | 4.8 | 11.3 | 0.00 | 0.00 | 0.00 | 18 | 1009.1 |
| 20260507004420 | 28 | 352 | 3.2 | 3.2 | 0.00 | 0.00 | 0.00 | 17 | 1009.0 |
| 20260507003918 | 27 | 10 | 8.0 | 9.7 | 0.00 | 0.00 | 0.00 | 18 | 1009.0 |
| 20260507003412 | 28 | 9 | 6.4 | 8.0 | 0.00 | 0.00 | 0.00 | 18 | 1008.9 |
| 20260507002908 | 28 | 14 | 9.7 | 11.3 | 0.00 | 0.00 | 0.00 | 17 | 1009.0 |
| 20260507002404 | 28 | 354 | 6.4 | 11.3 | 0.00 | 0.00 | 0.00 | 17 | 1009.0 |
| 20260507001902 | 28 | 31 | 1.6 | 3.2 | 0.00 | 0.00 | 0.00 | 17 | 1008.9 |
| 20260507001358 | 28 | 34 | 8.0 | 9.7 | 0.00 | 0.00 | 0.00 | 18 | 1008.9 |
| 20260507000855 | 28 | 62 | 8.0 | 9.7 | 0.00 | 0.00 | 0.00 | 18 | 1009.0 |
| 20260507000350 | 28 | 359 | 3.2 | 3.2 | 0.00 | 0.00 | 0.00 | 17 | 1009.0 |
| 20260506235847 | 29 | 20 | 3.2 | 4.8 | 0.00 | 0.00 | 0.00 | 17 | 1008.8 |
| 20260506235344 | 29 | 34 | 1.6 | 4.8 | 0.00 | 0.00 | 0.00 | 17 | 1009.0 |
| 20260506234840 | 29 | 8 | 1.6 | 4.8 | 0.00 | 0.00 | 0.00 | 17 | 1008.9 |
| 20260506234338 | 28 | 3 | 0.0 | 1.6 | 0.00 | 0.00 | 0.00 | 17 | 1008.9 |
| 20260506233835 | 28 | 220 | 4.8 | 4.8 | 0.00 | 0.00 | 0.00 | 17 | 1009.3 |
| 20260506233331 | 27 | 19 | 1.6 | 4.8 | 0.00 | 0.00 | 0.00 | 18 | 1009.1 |
| 20260506232828 | 27 | 356 | 0.0 | 3.2 | 0.00 | 0.00 | 0.00 | 17 | 1009.3 |
| 20260506232324 | 29 | 33 | 8.0 | 12.9 | 0.00 | 0.00 | 0.00 | 17 | 1009.3 |
| 20260506231820 | 29 | 291 | 4.8 | 11.3 | 0.00 | 0.00 | 0.00 | 17 | 1009.2 |
| 20260506231318 | 28 | 32 | 1.6 | 4.8 | 0.00 | 0.00 | 0.00 | 17 | 1009.3 |
| 20260506230815 | 28 | 237 | 6.4 | 8.0 | 0.00 | 0.00 | 0.00 | 17 | 1009.3 |
| 20260506230312 | 28 | 208 | 4.8 | 4.8 | 0.00 | 0.00 | 0.00 | 17 | 1009.5 |
| 20260506225808 | 28 | 23 | 1.6 | 8.0 | 0.00 | 0.00 | 0.00 | 17 | 1009.4 |
| 20260506225306 | 28 | 355 | 3.2 | 8.0 | 0.00 | 0.00 | 0.00 | 17 | 1009.4 |
| 20260506224802 | 27 | 331 | 0.0 | 4.8 | 0.00 | 0.00 | 0.00 | 18 | 1009.6 |
| 20260506224259 | 27 | 295 | 4.8 | 4.8 | 0.00 | 0.00 | 0.00 | 18 | 1009.6 |
| 20260506223755 | 27 | 20 | 1.6 | 4.8 | 0.00 | 0.00 | 0.00 | 18 | 1009.8 |
| 20260506223251 | 27 | 33 | 3.2 | 11.3 | 0.00 | 0.00 | 0.00 | 19 | 1009.9 |
| 20260506222748 | 27 | 2 | 4.8 | 9.7 | 0.00 | 0.00 | 0.00 | 19 | 1009.8 |
| 20260506222244 | 27 | 77 | 9.7 | 12.9 | 0.00 | 0.00 | 0.00 | 19 | 1009.9 |
| 20260506221742 | 27 | 297 | 1.6 | 9.7 | 0.00 | 0.00 | 0.00 | 19 | 1010.0 |
| 20260506221240 | 27 | 43 | 9.7 | 11.3 | 0.00 | 0.00 | 0.00 | 19 | 1010.0 |
| 20260506220731 | 27 | 15 | 8.0 | 12.9 | 0.00 | 0.00 | 0.00 | 19 | 1009.9 |
| 20260506220226 | 27 | 14 | 0.0 | 9.7 | 0.00 | 0.00 | 0.00 | 19 | 1010.0 |
| 20260506215722 | 27 | 330 | 1.6 | 8.0 | 0.00 | 0.00 | 0.00 | 19 | 1010.3 |
| 20260506215218 | 27 | 335 | 4.8 | 16.1 | 0.00 | 0.00 | 0.00 | 19 | 1010.4 |
| 20260506214715 | 27 | 346 | 0.0 | 1.6 | 0.00 | 0.00 | 0.00 | 18 | 1010.2 |
| 20260506214212 | 27 | 207 | 6.4 | 8.0 | 0.00 | 0.00 | 0.00 | 19 | 1010.5 |
| 20260506213710 | 26 | 5 | 0.0 | 4.8 | 0.00 | 0.00 | 0.00 | 19 | 1010.8 |
| 20260506213208 | 26 | 47 | 4.8 | 11.3 | 0.00 | 0.00 | 0.00 | 20 | 1010.6 |
| 20260506212704 | 27 | 282 | 9.7 | 14.5 | 0.00 | 0.00 | 0.00 | 19 | 1010.7 |
| 20260506212200 | 27 | 299 | 6.4 | 9.7 | 0.00 | 0.00 | 0.00 | 19 | 1010.6 |
| 20260506211650 | 26 | 294 | 3.2 | 4.8 | 0.00 | 0.00 | 0.00 | 20 | 1010.8 |
| 20260506211147 | 27 | 357 | 1.6 | 4.8 | 0.00 | 0.00 | 0.00 | 20 | 1010.8 |
| 20260506210644 | 26 | 8 | 1.6 | 12.9 | 0.00 | 0.00 | 0.00 | 20 | 1011.1 |
| 20260506210140 | 26 | 317 | 1.6 | 8.0 | 0.00 | 0.00 | 0.00 | 20 | 1011.1 |
| 20260506205638 | 26 | 349 | 3.2 | 12.9 | 0.00 | 0.00 | 0.00 | 20 | 1011.1 |
| 20260506205137 | 26 | 342 | 3.2 | 9.7 | 0.00 | 0.00 | 0.00 | 21 | 1011.0 |
| 20260506204636 | 27 | 19 | 4.8 | 9.7 | 0.00 | 0.00 | 0.00 | 20 | 1011.1 |
| 20260506204132 | 27 | 56 | 4.8 | 17.7 | 0.00 | 0.00 | 0.00 | 20 | 1011.1 |
| 20260506203631 | 26 | 333 | 4.8 | 11.3 | 0.00 | 0.00 | 0.00 | 20 | 1011.1 |
| 20260506203127 | 26 | 25 | 1.6 | 9.7 | 0.00 | 0.00 | 0.00 | 21 | 1011.2 |
| 20260506202625 | 26 | 7 | 6.4 | 9.7 | 0.00 | 0.00 | 0.00 | 20 | 1011.3 |
| 20260506202121 | 26 | 16 | 8.0 | 9.7 | 0.00 | 0.00 | 0.00 | 21 | 1011.5 |
| 20260506201618 | 26 | 324 | 6.4 | 11.3 | 0.00 | 0.00 | 0.00 | 20 | 1011.3 |
| 20260506201115 | 26 | 19 | 3.2 | 9.7 | 0.00 | 0.00 | 0.00 | 21 | 1011.6 |
| 20260506200611 | 26 | 346 | 11.3 | 12.9 | 0.00 | 0.00 | 0.00 | 20 | 1011.3 |
| 20260506200108 | 26 | 301 | 4.8 | 9.7 | 0.00 | 0.00 | 0.00 | 20 | 1011.6 |
| 20260506195604 | 26 | 265 | 4.8 | 9.7 | 0.00 | 0.00 | 0.00 | 20 | 1011.5 |
| 20260506195101 | 25 | 341 | 4.8 | 4.8 | 0.00 | 0.00 | 0.00 | 21 | 1011.5 |
| 20260506194559 | 25 | 22 | 6.4 | 9.7 | 0.00 | 0.00 | 0.00 | 22 | 1011.7 |
| 20260506194055 | 26 | 8 | 4.8 | 8.0 | 0.00 | 0.00 | 0.00 | 20 | 1011.7 |
| 20260506193553 | 25 | 307 | 1.6 | 4.8 | 0.00 | 0.00 | 0.00 | 22 | 1011.9 |
| 20260506193050 | 25 | 22 | 3.2 | 8.0 | 0.00 | 0.00 | 0.00 | 23 | 1012.1 |
| 20260506192546 | 25 | 318 | 6.4 | 11.3 | 0.00 | 0.00 | 0.00 | 23 | 1012.0 |
| 20260506192042 | 25 | 18 | 4.8 | 12.9 | 0.00 | 0.00 | 0.00 | 23 | 1011.9 |
| 20260506191539 | 24 | 177 | 1.6 | 4.8 | 0.00 | 0.00 | 0.00 | 23 | 1012.0 |
| 20260506191035 | 25 | 6 | 11.3 | 12.9 | 0.00 | 0.00 | 0.00 | 22 | 1011.9 |
| 20260506190532 | 25 | 44 | 3.2 | 4.8 | 0.00 | 0.00 | 0.00 | 22 | 1012.2 |
| 20260506190030 | 25 | 20 | 8.0 | 9.7 | 0.00 | 0.00 | 0.00 | 24 | 1012.1 |
| 20260506185527 | 25 | 20 | 3.2 | 8.0 | 0.00 | 0.00 | 0.00 | 23 | 1012.3 |
| 20260506185023 | 24 | 291 | 3.2 | 9.7 | 0.00 | 0.00 | 0.00 | 23 | 1012.4 |
| 20260506184521 | 25 | 15 | 11.3 | 12.9 | 0.00 | 0.00 | 0.00 | 22 | 1012.5 |
| 20260506184018 | 25 | 303 | 4.8 | 9.7 | 0.00 | 0.00 | 0.00 | 23 | 1012.3 |
| 20260506183513 | 25 | 272 | 3.2 | 4.8 | 0.00 | 0.00 | 0.00 | 23 | 1012.5 |
| 20260506183010 | 25 | 316 | 3.2 | 8.0 | 0.00 | 0.00 | 0.00 | 23 | 1012.4 |
| 20260506182508 | 25 | 247 | 4.8 | 8.0 | 0.00 | 0.00 | 0.00 | 23 | 1012.6 |
| 20260506182004 | 24 | 286 | 4.8 | 11.3 | 0.00 | 0.00 | 0.00 | 25 | 1012.7 |
| 20260506181502 | 25 | 33 | 1.6 | 3.2 | 0.00 | 0.00 | 0.00 | 24 | 1012.6 |
| 20260506180959 | 24 | 25 | 4.8 | 4.8 | 0.00 | 0.00 | 0.00 | 25 | 1012.9 |
| 20260506180456 | 25 | 325 | 4.8 | 9.7 | 0.00 | 0.00 | 0.00 | 24 | 1012.9 |
| 20260506175952 | 24 | 15 | 0.0 | 3.2 | 0.00 | 0.00 | 0.00 | 25 | 1012.9 |
| 20260506175449 | 23 | 349 | 1.6 | 1.6 | 0.00 | 0.00 | 0.00 | 26 | 1012.7 |
| 20260506174945 | 24 | 301 | 1.6 | 3.2 | 0.00 | 0.00 | 0.00 | 26 | 1012.6 |
| 20260506174444 | 23 | 25 | 1.6 | 11.3 | 0.00 | 0.00 | 0.00 | 26 | 1013.0 |
| 20260506173940 | 24 | 27 | 9.7 | 9.7 | 0.00 | 0.00 | 0.00 | 26 | 1012.7 |
| 20260506173437 | 23 | 350 | 1.6 | 3.2 | 0.00 | 0.00 | 0.00 | 28 | 1012.6 |
| 20260506172929 | 23 | 224 | 4.8 | 4.8 | 0.00 | 0.00 | 0.00 | 27 | 1012.5 |
| 20260506172426 | 24 | 188 | 4.8 | 9.7 | 0.00 | 0.00 | 0.00 | 25 | 1012.7 |
| 20260506171922 | 23 | 343 | 8.0 | 9.7 | 0.00 | 0.00 | 0.00 | 28 | 1012.9 |
| 20260506171420 | 23 | 343 | 8.0 | 9.7 | 0.00 | 0.00 | 0.00 | 28 | 1012.9 |
| 20260506170917 | 23 | 9 | 0.0 | 4.8 | 0.00 | 0.00 | 0.00 | 28 | 1012.7 |
| 20260506170413 | 23 | 193 | 1.6 | 3.2 | 0.00 | 0.00 | 0.00 | 27 | 1012.9 |
| 20260506165907 | 23 | 5 | 1.6 | 3.2 | 0.00 | 0.00 | 0.00 | 29 | 1012.6 |
| 20260506165405 | 22 | 208 | 1.6 | 3.2 | 0.00 | 0.00 | 0.00 | 29 | 1012.3 |
| 20260506164901 | 23 | 284 | 3.2 | 3.2 | 0.00 | 0.00 | 0.00 | 29 | 1012.6 |
| 20260506164357 | 23 | 348 | 1.6 | 3.2 | 0.00 | 0.00 | 0.00 | 28 | 1012.5 |
| 20260506163855 | 22 | 349 | 1.6 | 1.6 | 0.00 | 0.00 | 0.00 | 30 | 1012.6 |
| 20260506163349 | 22 | 249 | 3.2 | 4.8 | 0.00 | 0.00 | 0.00 | 30 | 1012.6 |
| 20260506162844 | 22 | 299 | 4.8 | 8.0 | 0.00 | 0.00 | 0.00 | 29 | 1012.6 |
| 20260506162342 | 22 | 290 | 1.6 | 4.8 | 0.00 | 0.00 | 0.00 | 30 | 1012.7 |
| 20260506161835 | 22 | 205 | 1.6 | 3.2 | 0.00 | 0.00 | 0.00 | 30 | 1012.5 |
| 20260506161332 | 22 | 237 | 1.6 | 4.8 | 0.00 | 0.00 | 0.00 | 30 | 1012.5 |
| 20260506160829 | 22 | 300 | 1.6 | 3.2 | 0.00 | 0.00 | 0.00 | 30 | 1012.6 |
| 20260506160325 | 22 | 237 | 1.6 | 3.2 | 0.00 | 0.00 | 0.00 | 31 | 1012.4 |
| 20260506155824 | 21 | 175 | 3.2 | 4.8 | 0.00 | 0.00 | 0.00 | 31 | 1012.7 |
| 20260506155320 | 21 | 188 | 6.4 | 11.3 | 0.00 | 0.00 | 0.00 | 32 | 1012.4 |
| 20260506153433 | 20 | 210 | 0.0 | 4.8 | 0.00 | 0.00 | 0.00 | 33 | 1012.7 |
| 20260506152930 | 21 | 210 | 3.2 | 3.2 | 0.00 | 0.00 | 0.00 | 32 | 1012.6 |
| 20260506152427 | 20 | 160 | 1.6 | 8.0 | 0.00 | 0.00 | 0.00 | 33 | 1012.6 |
| 20260506151926 | 20 | 203 | 8.0 | 11.3 | 0.00 | 0.00 | 0.00 | 33 | 1012.5 |
| 20260506151423 | 20 | 211 | 6.4 | 8.0 | 0.00 | 0.00 | 0.00 | 34 | 1012.6 |
| 20260506150920 | 20 | 198 | 4.8 | 8.0 | 0.00 | 0.00 | 0.00 | 34 | 1012.5 |
| 20260506150416 | 20 | 221 | 4.8 | 8.0 | 0.00 | 0.00 | 0.00 | 34 | 1012.3 |
| 20260506145913 | 20 | 186 | 1.6 | 3.2 | 0.00 | 0.00 | 0.00 | 33 | 1012.6 |
| 20260506145409 | 19 | 50 | 0.0 | 1.6 | 0.00 | 0.00 | 0.00 | 34 | 1012.5 |
| 20260506144907 | 18 | 277 | 0.0 | 0.0 | 0.00 | 0.00 | 0.00 | 34 | 1012.4 |
| 20260506144403 | 18 | 3 | 0.0 | 0.0 | 0.00 | 0.00 | 0.00 | 36 | 1012.3 |
| 20260506143902 | 17 | 28 | 0.0 | 0.0 | 0.00 | 0.00 | 0.00 | 38 | 1012.3 |